Location: Puketoi
(40.5833°S, 176.0167°E)
Time: 15:30:18
(UTC+00:00)

Tsikada Rocket - Pass Details

Date: 08 February 2023
Orbit: 957 x 1010 km, 82.9° (Epoch: 22 March)

Event Time Altitude Azimuth Distance (km) Brightness Sun altitude
Rises 14:52:58 0° 195° (SSW) 3,714 7.5 -25.3°
Reaches altitude 10° 14:55:36 10° 201° (SSW) 2,767 6.7 -25.0°
Maximum altitude 15:01:31 43° 269° (W) 1,378 4.5 -24.3°
Enters shadow 15:01:50 43° 277° (W) 1,384 4.4 -24.3°
